Find Starlink 4024

NORAD ID: 52599 Int'l Des: 2022-052 Owner: SPXS Country: US Constellation: starlink operational
LEOCIRCULAR

实时位置

正在加载3D地球...

关于 Starlink 4024

正在加载描述...

即将过境

Passes for default location (London). Set your location on the main map for personalized predictions.

高度历史

Loading altitude history...

两行轨道根数

1 52599U 22052B 26123.46211389 -.00001503 00000-0 -76324-4 0 9996
2 52599 53.2190 33.3414 0001299 108.4752 251.6382 15.08851262219926
Epoch: May 3, 2026 • Age: 19 hours

当前状态

高度 559.0 km
速度 7.58 km/s
星下点 -53.00°S, 0.11°E
发射日期 May 14, 2022
运行时间 3.9 years
类型 internet

技术详情

分类 Payload
质量 297.00 kg
干质量 275.00 kg
总质量 297.00 kg
长度 0.20 m
直径 2.80 m
跨度 9.00 m
形状 Box + pan
制造商 SPXS
平台类型 Starlink
阶段状态 In Orbit
所有者/国家 SPXS/US

Most Searched